This is the latest recevied weather packets stored in our database for station/object AA7VG. If no packets are shown the sender has not sent any weather packets the latest 1 day(s).
| Time | Temp. | Humidity | Pressure | Rain* | Wind** | Luminosity | Snow |
|---|---|---|---|---|---|---|---|
| 1777995508 | 7.22° C | 39% | 1015.5 hPa | 0 mm | 0 m/s | - | - |
| 1777995205 | 7.22° C | 42% | 1015.8 hPa | 0 mm | 0.89 m/s, 296° | - | - |
| 1777994903 | 7.22° C | 42% | 1015.8 hPa | 0 mm | 0.45 m/s, 284° | - | - |
| 1777994600 | 6.67° C | 42% | 1015.6 hPa | 0 mm | 0.89 m/s, 343° | - | - |
| 1777994300 | 6.67° C | 42% | 1015.8 hPa | 0 mm | 0.89 m/s, 275° | - | - |
| 1777993997 | 6.11° C | 43% | 1015.9 hPa | 0 mm | 0.45 m/s, 315° | - | - |
| 1777993693 | 6.11° C | 43% | 1015.8 hPa | 0 mm | 1.34 m/s, 301° | - | - |
| 1777993391 | 6.11° C | 44% | 1015.8 hPa | 0 mm | 0.45 m/s, 273° | - | - |
| 1777993085 | 5.56° C | 45% | 1015.8 hPa | 0 mm | 0 m/s | - | - |
| 1777992784 | 5.56° C | 45% | 1016.1 hPa | 0 mm | 0.45 m/s, 327° | - | - |
| 1777992481 | 5.56° C | 45% | 1015.8 hPa | 0 mm | 0.89 m/s, 310° | - | - |
| 1777992179 | 5° C | 49% | 1015.6 hPa | 0 mm | 0 m/s | - | - |
| 1777991875 | 4.44° C | 49% | 1015.9 hPa | 0 mm | 0 m/s | - | - |
| 1777991573 | 4.44° C | 49% | 1015.8 hPa | 0 mm | 0.45 m/s, 151° | - | - |
| 1777991270 | 3.89° C | 52% | 1015.6 hPa | 0 mm | 0 m/s | - | - |
| 1777990967 | 3.33° C | 54% | 1015.5 hPa | 0 mm | 0 m/s | - | - |
| 1777990665 | 3.33° C | 56% | 1015.6 hPa | 0 mm | 0 m/s | - | - |
| 1777990362 | 2.78° C | 56% | 1015.6 hPa | 0 mm | 0 m/s | - | - |
| 1777990058 | 2.78° C | 60% | 1015.6 hPa | 0 mm | 0.45 m/s, 218° | - | - |
| 1777989755 | 2.22° C | 61% | 1015.6 hPa | 0 mm | 0 m/s | - | - |
| 1777989452 | 2.22° C | 61% | 1015.5 hPa | 0 mm | 0 m/s | - | - |
| 1777989148 | 1.67° C | 63% | 1015.6 hPa | 0 mm | 0 m/s | - | - |
| 1777988844 | 1.67° C | 64% | 1015.5 hPa | 0 mm | 0 m/s | - | - |
| 1777988542 | 1.67° C | 65% | 1015.6 hPa | 0 mm | 0 m/s | - | - |
| 1777988238 | 1.11° C | 66% | 1015.5 hPa | 0 mm | 0.45 m/s, 144° | - | - |
* Rain latest hour (hover to see other rain measurements)
** Current wind speed in m/s (hover to see current wind gust speed)